SL-14 DEB, 45325

Orbit data source: Space-Track

SL-14 DEB, 45325 is space debris in LEO originally from a launch on Thu, 15 Aug 1991 UTC launched from the Plesetsk Missile And Space Complex (PKMTR). Debris objects in space refer to the collection of defunct objects orbiting the Earth. Examples of debris include non-operational satellites, rocket bodies, and fragments generated from explosions, collisions, or faulty payload assembly.

Loading next visibility...
SL-14 DEB details
Identifier
45325, 1991-056BP
Orbit
LEO
Last TLE update11 hours ago
Origin
Flag of CISRosgidromet (CIS)
ManufacturerUnknown
MissionSpacecraft
Bus & MotorUnknown
MassUnknown
Launch date (UTC)
1991-08-15 (33 years ago)
Launch vehicleUnknown
Launch site
Plesetsk Missile And Space Complex (PKMTR)
Object type
Payload
Rocket body
Debris
Shape & HBRUnknown
Radar Cross SectionSmall (<0.1 m²)

Expand to show TLE details & history

TLE from 11 hours ago
0 SL-14 DEB
1 45325U 91056BP  24361.07839662  .00041677  00000-0  21994-1 0  9998
2 45325  82.5544  33.6546 0166169 228.4727 130.2092 14.06802150241671
Epoch: 2024-12-26T01:52Z
Definitive object data (Epoch: 2024-12-26T01:52:53.467Z)
Latitude-0.00012°
Longitude-89.63115°
Altitude952.192 km
Speed7.335 km/s
True Right ascension02h 14m 37s
True Declination0° 00' 00"
Sunlit
Object was in daylight at TLE epoch
Visualization TLE readout
Latitude64.49334°
Longitude74.18612°
Altitude925.902 km
Speed7.372 km/s
Apparent Right ascension22h 18m 42s
Apparent Declination50° 03' 26"
Sunlit
Object is in daylight
Visualization observer readout
Local Sidereal Time12:02:25
Azimuth16.324° NNE
Elevation2.815°
Doppler factor1
Orbital elements
Apogee altitude987.854 km
Perigee altitude747.055 km
Semi-major axis7,245.592 km
Eccentricity0.0166169
Inclination82.5544°
RAAN33.6546°
Arg. of periapsis228.4727°
True anomaly131.64399°
Mean anomaly130.2092°
Eccentric anomaly130.92852°
Mean motion3.51911 °/min
BSTAR0.021994
Orbital period102.3 mins
Loading maneuver chart data...
Loading historical data...
Loading historical data...
Loading historical data...
Loading historical data...
Loading historical data...
Loading historical data...
Loading historical data...

SL-14 DEB Visibility forecast

Observer location: undefined°, undefined

Span
Click to sort rows by Start time (UTC) header in descending order
Start Az.
Max El. time (UTC)
Max El. Az.
Max El.
End time (UTC)
End Az.
10 mins2024-12-26 14:25:51.836Z350.35° N2024-12-26 14:30:51.836Z207.358° SW44.262°2024-12-26 14:35:51.836Z177.347° S
8 mins2024-12-27 01:54:51.836Z125.708° SE2024-12-27 01:58:51.836Z79.155° E21.222°2024-12-27 02:02:51.836Z37.765° NE
10 mins2024-12-27 03:36:51.836Z210.786° SW2024-12-27 03:40:51.836Z270.256° WNW38.704°2024-12-27 03:46:51.836Z356.931° N
|